Location: Unspecified
(42.9300°N, 71.1866°W)
Time: 12:58:39
(UTC-04:00)

Genesis I - Visible Passes

Search period start: 23 May 2018 00:00
Search period end: 02 June 2018 00:00
Orbit: 481 x 546 km, 64.5° (Epoch: 23 May)

Date Brightness Start Highest point End Pass type
(mag) Time Alt. Az. Time Alt. Az. Time Alt. Az.
23 May 3.2 03:26:43 33° SW 03:28:25 79° NW 03:32:28 10° NNE visible
24 May 3.2 03:10:50 42° SW 03:12:06 78° NW 03:16:09 10° NNE visible
25 May 3.2 02:54:53 52° SW 02:55:46 77° NW 02:59:49 10° NNE visible
25 May 5.7 04:32:28 10° WNW 04:34:08 12° NW 04:35:48 10° N visible
26 May 3.2 02:38:54 63° WSW 02:39:26 77° NW 02:43:29 10° NNE visible
26 May 5.7 04:16:10 10° WNW 04:17:48 12° NW 04:19:27 10° N visible
27 May 3.1 02:22:52 72° W 02:23:06 76° NW 02:27:09 10° NNE visible
27 May 5.8 03:59:52 10° WNW 04:01:28 12° NW 04:03:05 10° NNW visible
28 May 3.2 02:06:47 75° NW 02:06:47 75° NW 02:10:49 10° NNE visible
28 May 5.8 03:43:34 10° WNW 03:45:09 12° NW 03:46:44 10° NNW visible
29 May 3.4 01:50:40 71° NNW 01:50:40 71° NNW 01:54:28 10° NNE visible
29 May 5.9 03:27:17 10° WNW 03:28:49 12° NW 03:30:22 10° NNW visible
30 May 3.5 01:34:29 66° N 01:34:29 66° N 01:38:08 10° NNE visible
30 May 5.9 03:10:59 10° WNW 03:12:29 12° NW 03:14:01 10° NNW visible
31 May 3.6 01:18:15 62° N 01:18:15 62° N 01:21:48 10° NNE visible
31 May 5.9 02:54:40 10° WNW 02:56:09 12° NW 02:57:39 10° NNW visible
01 Jun 3.7 01:01:58 60° N 01:01:58 60° N 01:05:28 10° NNE visible
01 Jun 6.0 02:38:23 10° NW 02:39:50 12° NW 02:41:17 10° NNW visible
